Погода Ефимовская

Погода Ефимовская : погода сейчас, прогноз погоды и архив. Всё, что Вы хотите узнать о погоде Ефимовская!

Поиск расширенной информации на нашем сайте:

Другие новости

Новости СМИ2

Главная страница сайта

Новости сайта

03.07.2017

Напоминаем, что на нашем специализированном сайте Метеоцентр.Азия вы можете получить высокодетализированные автоматические прогнозы погоды по пунктам России, СНГ и мира в авиационном формате (включающие направление и скорость ветра, видимость, явления погоды, количество и форму облачности, нижнюю и верхнюю границу облачности).


Погода Ефимовская - сегодня

Время (UTC), дата Ветер
(°,м/с) 
Видим.   Явления Облачность Т
(°С)
Тd
(°С)
f(%) Тe
(°С)
Pmin
(гПа)
dP
(гПа)
Po
(мм)
O2
(г/м3)
Тmin Tmax R s Состояние
почвы
00 18.08.17 140 (ЮВ) н/о    н/о 
+15.4 +14.4 94 +25  1022  -0.8  751  283           
03 18.08.17 130 (ЮВ) н/о    н/о 
+14.5 +13.7 95 +23  1021.1  -1  750  284  +14         
06 18.08.17 150 (ЮВ) 20000 м    9/9 600 м кучево-дожд. 
[Cb cap]
+18 +15.7 86 +29  1020.4  -0.4  750  280  +14      влажная 
09 18.08.17 160 (Ю) н/о    н/о 
+19.7 +16.5 82 +32  1020.3  750  278           
12 18.08.17 140 (ЮВ) н/о    н/о 
+20.6 +17.4 82 +34  1018.8  -1.4  749  277           
15 18.08.17 160 (Ю) н/о    н/о 
+22.6 +18.8 79 +39  1017.3  -1.4  748  274           
18 18.08.17 170 (Ю) 1{12}  20000 м    10/0 средняя 
[As op]
+16.7 +15.7 94 +28  1017.5  -0.3  748  280    +23.1     
21 18.08.17 150 (ЮВ) н/о    н/о 
+15.6 +14.9 96 +25  1017.5  748  282           
00 19.08.17 190 (Ю) н/о    н/о 
+15.9 +15.3 96 +26  1017.8  0.4  748  281           
03 19.08.17 120 (ЮВ) н/о    н/о 
+14.5 +14 97 +23  1017.4  -0.5  747  283  +14.5         
06 19.08.17 190 (Ю) 20000 м    10/10 210 м 
[St]
+17.4 +16.8 96 +31  1017.5  0.3  748  279  +14.5      влажная 
09 19.08.17 160 (Ю) н/о    н/о 
+23 +17.9 73 +37  1017.1  0.1  748  274           
12 19.08.17 170 (Ю) н/о    н/о 
+24.5 +18 67 +39  1016.5  -0.5  747  272           
15 19.08.17 160 (Ю) н/о    н/о 
+24.7 +18.8 70 +41  1015.5  -1  747  271           
18 19.08.17 160 (Ю) 20000 м    8/8 600 м кучево-дожд. 
[Cb cap]
+20.7 +17.6 82 +34  1015.7  746  276    +25.7       
21 19.08.17 180 (Ю) н/о    н/о 
+18.7 +15.1 80 +29  1016.1  0.2  747  278           
00 20.08.17 130 (ЮВ) н/о    н/о 
+17.1 +14.8 86 +27  1015.9  -0.5  746  280           
03 20.08.17 130 (ЮВ) н/о    н/о 
+16.1 +14.6 91 +25  1015.4  0.1  746  281  +15.4         
06 20.08.17 210 (ЮЗ) 20000 м    3/0 верхняя 
[Ci sp]
+21.7 +15.7 69 +32  1015.8  0.7  747  275  +15.4        влажная 
09 20.08.17 240 (ЮЗ) н/о    н/о 
+25.3 +17.2 61 +38  1016.5  0.9  747  272           
12 20.08.17 270 (З) н/о    н/о 
+24.2 +17.7 67 +38  1017.2  0.6  748  273           
15 20.08.17 190 (Ю) н/о    н/о 
+23.5 +18.1 72 +38  1017.1  -0.2  748  273           
18 20.08.17 тихо ()   20000 м    8/8 600 м кучево-дожд. 
[Cb cap]
+18.8 +17.9 95 +33  1017.4  748  278    +25.7       
21 20.08.17 тихо ()   н/о    н/о 
+16 +15.4 96 +25  1016.9  -0.8  747  281           
00 21.08.17 160 (Ю) н/о    н/о 
+16.7 +16.1 96 +29  1016.3  -0.5  747  280           
Время (UTC), дата Ветер
(°,м/с) 
Видим.   Явления Облачность Т
(°С)
Тd
(°С)
f(%) Тe
(°С)
Pmin
(гПа)
dP
(гПа)
Po
(мм)
O2
(г/м3)
Тmin Tmax R s Состояние
почвы

Для получения пояснительной информации подведите курсор к названию столбца.

ПОГОДА Ефимовская - архив

Всё, что Вы хотите узнать о погоде Ефимовская - удобно и подробно!

Выберите нужную дату (начиная с 1 января 2015* года) и нажмите кнопку "Найти".
Будут отображены архивные сводки погоды по пункту Ефимовская, начиная с указанной даты.


Отображать данные в формате CSV (для использования в таблицах Excel)


Внимание! Наш архив погоды предназначен исключительно для личного некоммерческого использования в познавательных целях. Если Вам необходимы официальные справки о состоянии погоды (для производственных, юридических, коммерческих и т.п. целей), обращайтесь в органы Росгидромета.

*Примечание: данная дата относится к архиву по метеостанциям СССР (Россия, СНГ, Балтия).
Архив по метеостанциям Зарубежной Европы и Азии (кроме Китая) хранится 10 дней, по другим регионам земного шара (Китай, Африка, Америка, Австралия, Океания) - 1 день.

Ефимовская - район местоположения метеостанции


Название, широта, долгота, высота метеостанции:
Ефимовская 59.5°ш. 34.7°д. 176 м над ур. моря [Российская Федерация]

Дополнительная информация

В oтличие oт бoльшинства пoгoдных сайтoв мы публикуем пoдрoбную метеoинфoрмацию в детальнoм прoфессиoнальнoм фoрмате.

Характеристики температуры и влажнoсти вoздуха измеряются на высoте 2 м в тени вдали oт зданий и деревьев.
Скoрoсть ветра измеряется на высoте 10 м (на урoвне рoста челoвека скoрoсть ветра ниже в 1.5-2 раза). Если метеoстанция нахoдится в гoрoде или в лесу, тo скoрoсть ветра занижена на 2-4 м/с пo сравнению с oткрытым местoм. Скoрoсть ветра над акватoриями крупных рек и oзёр, а также на вершинах хoлмoв на 2-5 м/с выше, чем в oбычных услoвиях.
Атмoсфернoе давление в разных тoчках местнoсти мoжет значительнo oтличаться oт давления на метеoстанции, в зависимoсти oт услoвий рельефа (при пoдъёме на 10 м давление пoнижается примернo на 1 мм рт.ст.).